�������l�o���
Date,Time,MP-1(��Sv/h),MP-2(��Sv/h),MP-3(��Sv/h),MP-4(��Sv/h),MP-5(��Sv/h),MP-6(��Sv/h),MP-7(��Sv/h),MP-8(��Sv/h),����,����(m/s),���J
2019/11/10,00:00,0.734,1.056,0.685,1.294,0.915,0.418,0.723,0.686,�k��,7.1,��
2019/11/10,00:10,0.735,1.057,0.685,1.299,0.916,0.418,0.724,0.688,�k��,7.4,��
2019/11/10,00:20,0.733,1.058,0.684,1.298,0.917,0.418,0.724,0.687,�k��,7.7,��
2019/11/10,00:30,0.734,1.054,0.684,1.297,0.915,0.416,0.723,0.687,�k��,7.4,��
2019/11/10,00:40,0.734,1.059,0.685,1.296,0.916,0.416,0.725,0.687,�k��,5.6,��
2019/11/10,00:50,0.735,1.057,0.685,1.297,0.915,0.417,0.724,0.688,�k��,4.4,��
2019/11/10,01:00,0.733,1.058,0.682,1.295,0.918,0.418,0.724,0.687,�k��,4.7,��
2019/11/10,01:10,0.733,1.057,0.684,1.297,0.917,0.418,0.724,0.687,�k��,4.6,��
2019/11/10,01:20,0.734,1.059,0.684,1.296,0.917,0.416,0.726,0.687,�k��,4.9,��
2019/11/10,01:30,0.733,1.060,0.684,1.294,0.917,0.417,0.724,0.687,���k��,4.9,��
2019/11/10,01:40,0.735,1.056,0.685,1.297,0.917,0.417,0.726,0.687,���k��,4.9,��
2019/11/10,01:50,0.734,1.059,0.684,1.298,0.916,0.417,0.727,0.687,���k��,3.5,��
2019/11/10,02:00,0.734,1.057,0.685,1.299,0.917,0.417,0.725,0.686,���k��,3.2,��
2019/11/10,02:10,0.732,1.058,0.684,1.295,0.917,0.416,0.725,0.688,���k��,3.5,��
2019/11/10,02:20,0.735,1.056,0.683,1.295,0.914,0.418,0.727,0.686,���k��,3.4,��
2019/11/10,02:30,0.733,1.056,0.681,1.295,0.915,0.418,0.726,0.686,���k��,2.3,��
2019/11/10,02:40,0.733,1.055,0.684,1.295,0.917,0.417,0.725,0.686,���k��,2.4,��
2019/11/10,02:50,0.732,1.053,0.685,1.295,0.916,0.417,0.725,0.687,�k��,2.8,��
2019/11/10,03:00,0.735,1.053,0.684,1.294,0.915,0.417,0.725,0.686,�k��,2.4,��
2019/11/10,03:10,0.733,1.056,0.684,1.296,0.917,0.417,0.725,0.686,���k��,3.2,��
2019/11/10,03:20,0.734,1.054,0.684,1.296,0.915,0.417,0.725,0.686,���k��,2.8,��
2019/11/10,03:30,0.732,1.056,0.683,1.295,0.915,0.416,0.726,0.686,���k��,3.1,��
2019/11/10,03:40,0.732,1.055,0.684,1.296,0.916,0.416,0.726,0.685,���k��,3.8,��
2019/11/10,03:50,0.732,1.056,0.684,1.296,0.914,0.416,0.725,0.687,���k��,5.0,��
2019/11/10,04:00,0.735,1.053,0.684,1.294,0.915,0.417,0.725,0.685,�k��,4.2,��
2019/11/10,04:10,0.732,1.057,0.684,1.299,0.916,0.417,0.725,0.687,�k��,5.0,��
2019/11/10,04:20,0.731,1.052,0.682,1.295,0.915,0.417,0.725,0.687,���k��,3.5,��
2019/11/10,04:30,0.733,1.054,0.683,1.295,0.914,0.417,0.726,0.686,���k��,3.5,��
2019/11/10,04:40,0.733,1.057,0.683,1.295,0.916,0.418,0.726,0.687,���k��,3.8,��
2019/11/10,04:50,0.732,1.054,0.685,1.295,0.917,0.417,0.726,0.687,���k��,4.3,��
2019/11/10,05:00,0.735,1.057,0.683,1.295,0.917,0.416,0.724,0.686,���k��,3.2,��
2019/11/10,05:10,0.734,1.054,0.684,1.295,0.915,0.416,0.724,0.687,��,4.4,��
2019/11/10,05:20,0.733,1.055,0.684,1.294,0.914,0.417,0.726,0.688,���k��,3.0,��
2019/11/10,05:30,0.734,1.056,0.683,1.297,0.916,0.416,0.725,0.687,���k��,2.8,��
2019/11/10,05:40,0.732,1.053,0.683,1.295,0.914,0.417,0.724,0.687,�k��,2.8,��
2019/11/10,05:50,0.733,1.055,0.684,1.293,0.914,0.416,0.724,0.686,���k��,3.0,��
2019/11/10,06:00,0.732,1.055,0.681,1.296,0.914,0.416,0.723,0.687,���k��,4.9,��
2019/11/10,06:10,0.733,1.055,0.681,1.295,0.914,0.417,0.726,0.684,���k��,7.4,��
2019/11/10,06:20,0.733,1.056,0.683,1.297,0.913,0.417,0.724,0.686,���k��,6.0,��
2019/11/10,06:30,0.733,1.055,0.684,1.296,0.913,0.417,0.726,0.686,���k��,5.5,��
2019/11/10,06:40,0.732,1.055,0.681,1.293,0.915,0.417,0.724,0.685,�k��,6.0,��
2019/11/10,06:50,0.733,1.053,0.682,1.295,0.914,0.416,0.725,0.685,���k��,4.9,��
2019/11/10,07:00,0.733,1.054,0.683,1.293,0.915,0.417,0.724,0.685,���k��,4.4,��
2019/11/10,07:10,0.733,1.055,0.682,1.296,0.914,0.415,0.726,0.686,�k��,3.3,��
2019/11/10,07:20,0.733,1.054,0.683,1.293,0.913,0.417,0.726,0.685,�k��,2.1,��
2019/11/10,07:30,0.732,1.054,0.685,1.297,0.913,0.417,0.727,0.685,�k��,3.6,��
2019/11/10,07:40,0.733,1.055,0.683,1.296,0.916,0.416,0.726,0.687,�k��,6.0,��
2019/11/10,07:50,0.732,1.055,0.683,1.295,0.913,0.416,0.726,0.688,���k��,5.5,��
2019/11/10,08:00,0.732,1.057,0.683,1.294,0.913,0.417,0.725,0.686,���k��,6.0,��
2019/11/10,08:10,0.732,1.056,0.683,1.299,0.916,0.418,0.724,0.687,���k��,6.3,��
2019/11/10,08:20,0.735,1.057,0.683,1.294,0.912,0.417,0.726,0.688,�k��,6.4,��
2019/11/10,08:30,0.732,1.054,0.684,1.297,0.916,0.418,0.726,0.687,���k��,4.5,��
2019/11/10,08:40,0.733,1.056,0.684,1.297,0.916,0.417,0.725,0.687,���k��,3.8,��
2019/11/10,08:50,0.733,1.053,0.683,1.296,0.915,0.418,0.723,0.685,���k��,5.0,��
2019/11/10,09:00,0.733,1.053,0.684,1.296,0.916,0.417,0.725,0.686,�k��,3.9,��
2019/11/10,09:10,0.737,1.055,0.684,1.295,0.916,0.417,0.725,0.686,�k��,4.3,��
2019/11/10,09:20,0.733,1.055,0.684,1.297,0.916,0.418,0.725,0.687,�k��,4.4,��
2019/11/10,09:30,0.733,1.054,0.684,1.298,0.916,0.418,0.724,0.687,�k��,4.2,��
2019/11/10,09:40,0.734,1.056,0.683,1.296,0.915,0.419,0.724,0.688,�k�k��,4.1,��
2019/11/10,09:50,0.736,1.056,0.685,1.299,0.916,0.418,0.726,0.686,�k�k��,2.5,��
2019/11/10,10:00,0.736,1.057,0.684,1.297,0.916,0.417,0.725,0.687,�k��,3.8,��
2019/11/10,10:10,0.734,1.058,0.685,1.296,0.915,0.418,0.724,0.687,�k�k��,5.0,��
2019/11/10,10:20,0.734,1.055,0.684,1.298,0.916,0.416,0.726,0.687,�k��,3.8,��
2019/11/10,10:30,0.733,1.056,0.684,1.297,0.916,0.416,0.726,0.687,���k��,3.1,��
2019/11/10,10:40,0.733,1.056,0.683,1.298,0.915,0.415,0.726,0.687,�k��,2.4,��
2019/11/10,10:50,0.735,1.056,0.684,1.297,0.916,0.415,0.726,0.687,�k�k��,2.0,��
2019/11/10,11:00,0.735,1.056,0.685,1.299,0.918,0.416,0.726,0.686,���쐼,0.8,��
2019/11/10,11:10,0.733,1.056,0.683,1.299,0.916,0.416,0.726,0.687,�k�k��,2.5,��
2019/11/10,11:20,0.733,1.056,0.684,1.301,0.915,0.416,0.725,0.689,�k�k��,2.8,��
2019/11/10,11:30,0.736,1.060,0.686,1.298,0.917,0.415,0.726,0.687,��,2.1,��
2019/11/10,11:40,0.737,1.058,0.685,1.297,0.917,0.416,0.726,0.688,�k,1.8,��
2019/11/10,11:50,0.735,1.060,0.683,1.298,0.915,0.417,0.727,0.687,��,3.6,��
2019/11/10,12:00,0.737,1.057,0.683,1.296,0.916,0.416,0.727,0.691,���k��,2.0,��
2019/11/10,12:10,0.736,1.060,0.682,1.299,0.917,0.416,0.726,0.687,�k�k��,3.0,��
2019/11/10,12:20,0.736,1.058,0.684,1.299,0.917,0.418,0.727,0.688,�k�k��,5.5,��
2019/11/10,12:30,0.734,1.059,0.684,1.300,0.918,0.419,0.725,0.686,�k�k��,5.7,��
2019/11/10,12:40,0.736,1.060,0.685,1.299,0.915,0.418,0.726,0.683,�k�k��,6.0,��
2019/11/10,12:50,0.734,1.058,0.684,1.301,0.918,0.417,0.727,0.686,�k�k��,5.0,��
2019/11/10,13:00,0.734,1.059,0.684,1.302,0.919,0.418,0.726,0.685,�k�k��,6.3,��
2019/11/10,13:10,0.736,1.057,0.682,1.297,0.919,0.417,0.725,0.686,�k�k��,5.3,��
2019/11/10,13:20,0.734,1.055,0.685,1.300,0.917,0.416,0.724,0.685,�k��,6.7,��
2019/11/10,13:30,0.735,1.058,0.683,1.300,0.919,0.416,0.726,0.684,�k�k��,4.6,��
2019/11/10,13:40,0.733,1.059,0.682,1.299,0.918,0.418,0.726,0.686,�k��,4.9,��
2019/11/10,13:50,0.736,1.055,0.683,1.300,0.919,0.417,0.724,0.687,�k��,4.2,��
2019/11/10,14:00,0.734,1.058,0.684,1.299,0.918,0.417,0.725,0.685,�k��,4.1,��
2019/11/10,14:10,0.734,1.059,0.684,1.299,0.917,0.418,0.725,0.685,�k��,3.8,��
2019/11/10,14:20,0.736,1.059,0.684,1.302,0.918,0.417,0.724,0.684,�k�k��,3.5,��
2019/11/10,14:30,0.735,1.058,0.684,1.300,0.918,0.417,0.725,0.685,�k��,3.6,��
2019/11/10,14:40,0.736,1.058,0.683,1.299,0.917,0.419,0.724,0.684,�k��,3.6,��
2019/11/10,14:50,0.735,1.058,0.684,1.299,0.917,0.418,0.726,0.685,�k��,3.0,��
2019/11/10,15:00,0.736,1.063,0.684,1.299,0.917,0.418,0.725,0.685,�k��,2.6,��
2019/11/10,15:10,0.735,1.061,0.685,1.301,0.915,0.418,0.726,0.685,�k�k��,2.2,��
2019/11/10,15:20,0.735,1.064,0.685,1.298,0.917,0.417,0.726,0.686,�k�k��,1.4,��
2019/11/10,15:30,0.734,1.062,0.683,1.298,0.917,0.420,0.726,0.686,�k��,0.9,��
2019/11/10,15:40,0.734,1.062,0.684,1.299,0.917,0.418,0.727,0.687,�k��,1.0,��
2019/11/10,15:50,0.736,1.059,0.682,1.299,0.917,0.418,0.728,0.687,�k��,0.8,��
2019/11/10,16:00,0.734,1.060,0.686,1.301,0.918,0.419,0.729,0.687,-,CALM,��
2019/11/10,16:10,0.736,1.059,0.684,1.299,0.918,0.418,0.726,0.687,���쓌,1.1,��
2019/11/10,16:20,0.737,1.060,0.684,1.299,0.918,0.421,0.725,0.689,��쓌,0.5,��
2019/11/10,16:30,0.734,1.061,0.685,1.300,0.916,0.418,0.726,0.689,-,CALM,��
2019/11/10,16:40,0.736,1.058,0.686,1.300,0.916,0.419,0.725,0.686,�k��,1.4,��
2019/11/10,16:50,0.736,1.059,0.686,1.299,0.921,0.419,0.727,0.687,�k��,0.5,��
2019/11/10,17:00,0.739,1.061,0.685,1.296,0.920,0.418,0.727,0.687,���쓌,0.6,��
2019/11/10,17:10,0.736,1.059,0.684,1.299,0.918,0.419,0.726,0.686,��,0.9,��
2019/11/10,17:20,0.734,1.061,0.685,1.297,0.920,0.418,0.725,0.687,��쐼,0.7,��
2019/11/10,17:30,0.736,1.061,0.684,1.297,0.917,0.418,0.727,0.688,��,1.1,��
2019/11/10,17:40,0.737,1.059,0.685,1.298,0.919,0.418,0.726,0.686,��,1.1,��
2019/11/10,17:50,0.738,1.059,0.686,1.299,0.920,0.418,0.725,0.686,��,0.9,��
2019/11/10,18:00,0.737,1.060,0.687,1.299,0.919,0.418,0.726,0.686,��,1.0,��
2019/11/10,18:10,0.737,1.060,0.686,1.300,0.920,0.418,0.727,0.685,��쐼,1.2,��
2019/11/10,18:20,0.736,1.059,0.684,1.298,0.918,0.418,0.727,0.688,��쐼,1.8,��
2019/11/10,18:30,0.737,1.060,0.686,1.301,0.919,0.417,0.727,0.687,��쐼,1.7,��
2019/11/10,18:40,0.737,1.062,0.685,1.299,0.918,0.416,0.725,0.683,��쐼,1.6,��
2019/11/10,18:50,0.734,1.059,0.682,1.299,0.919,0.418,0.724,0.686,��쐼,1.7,��
2019/11/10,19:00,0.736,1.059,0.684,1.298,0.919,0.418,0.725,0.686,��쐼,1.5,��
2019/11/10,19:10,0.736,1.058,0.684,1.298,0.921,0.417,0.725,0.687,��쐼,1.8,��
2019/11/10,19:20,0.735,1.058,0.683,1.300,0.918,0.417,0.725,0.685,��쐼,1.6,��
2019/11/10,19:30,0.733,1.059,0.684,1.298,0.919,0.417,0.725,0.687,��,1.6,��
2019/11/10,19:40,0.736,1.060,0.681,1.301,0.919,0.418,0.725,0.688,��쐼,1.5,��
2019/11/10,19:50,0.735,1.058,0.687,1.299,0.917,0.416,0.726,0.686,��,1.5,��
2019/11/10,20:00,0.736,1.059,0.683,1.297,0.918,0.417,0.725,0.687,��쐼,1.6,��
2019/11/10,20:10,0.736,1.058,0.685,1.299,0.921,0.417,0.726,0.687,��,1.7,��
2019/11/10,20:20,0.735,1.058,0.685,1.300,0.918,0.417,0.726,0.686,��쓌,1.8,��
2019/11/10,20:30,0.736,1.060,0.683,1.299,0.919,0.416,0.725,0.686,��,1.9,��
2019/11/10,20:40,0.736,1.059,0.685,1.298,0.919,0.417,0.727,0.687,��,2.1,��
2019/11/10,20:50,0.736,1.059,0.687,1.298,0.919,0.417,0.723,0.686,��쐼,2.4,��
2019/11/10,21:00,0.736,1.058,0.685,1.300,0.917,0.416,0.727,0.687,��쐼,2.8,��
2019/11/10,21:10,0.735,1.060,0.685,1.298,0.917,0.418,0.726,0.688,��쐼,3.0,��
2019/11/10,21:20,0.736,1.059,0.685,1.298,0.919,0.418,0.726,0.688,��쐼,3.2,��
2019/11/10,21:30,0.735,1.059,0.683,1.299,0.920,0.417,0.726,0.687,��,1.6,��
2019/11/10,21:40,0.737,1.057,0.685,1.298,0.917,0.416,0.724,0.687,��쐼,1.5,��
2019/11/10,21:50,0.737,1.058,0.685,1.300,0.917,0.418,0.725,0.687,��,1.5,��
2019/11/10,22:00,0.737,1.058,0.684,1.300,0.918,0.418,0.727,0.686,��,2.1,��
2019/11/10,22:10,0.737,1.061,0.684,1.294,0.918,0.416,0.725,0.687,��,2.8,��
2019/11/10,22:20,0.735,1.060,0.684,1.300,0.917,0.417,0.725,0.686,�쐼,2.4,��
2019/11/10,22:30,0.736,1.060,0.685,1.299,0.918,0.416,0.726,0.686,�쐼,2.6,��
2019/11/10,22:40,0.736,1.061,0.686,1.300,0.918,0.417,0.725,0.687,�쐼,2.1,��
2019/11/10,22:50,0.737,1.060,0.684,1.301,0.918,0.416,0.726,0.689,�쐼,2.9,��
2019/11/10,23:00,0.734,1.059,0.685,1.300,0.918,0.417,0.725,0.688,�쐼,2.4,��
2019/11/10,23:10,0.735,1.061,0.685,1.300,0.917,0.418,0.725,0.688,�쐼,1.9,��
2019/11/10,23:20,0.734,1.060,0.685,1.299,0.919,0.417,0.725,0.687,���쐼,2.5,��
2019/11/10,23:30,0.736,1.059,0.684,1.301,0.918,0.416,0.725,0.688,�쐼,2.2,��
2019/11/10,23:40,0.736,1.057,0.685,1.299,0.918,0.418,0.725,0.687,�쐼,2.3,��
2019/11/10,23:50,0.737,1.059,0.685,1.300,0.917,0.418,0.727,0.687,�쐼,2.5,��
